FW7873 Weather Reports


time (UTC)temp
C
wind
direction
speed
KPH
gust
KPH
rain 1hr
cm
rain 24hr
cm
rain mn
cm
humidity
%
barometer
mb
20260502220057 8 342 3.2 12.9 0.00 0.00 0.00 48 1016.4
20260502214555 8 329 4.8 14.5 0.00 0.00 0.00 49 1016.6
20260502213055 8 285 1.6 16.1 0.00 0.00 0.00 49 1016.7
20260502211556 8 360 3.2 14.5 0.00 0.00 0.00 49 1016.7
20260502210106 8 360 4.8 17.7 0.00 0.00 0.00 49 1017.0
20260502204558 8 273 3.2 19.3 0.00 0.00 0.00 48 1017.0
20260502203057 8 288 3.2 11.3 0.00 0.00 0.00 47 1017.0
20260502201557 8 276 6.4 19.3 0.00 0.00 0.00 49 1017.2
20260502200057 7 360 3.2 20.9 0.00 0.00 0.00 51 1017.4
20260502194555 7 360 3.2 19.3 0.00 0.00 0.00 50 1017.6
20260502193102 8 348 4.8 20.9 0.00 0.00 0.00 49 1017.7
20260502191601 8 360 4.8 14.5 0.00 0.00 0.00 50 1017.8
20260502190110 8 279 1.6 17.7 0.00 0.00 0.00 48 1017.8
20260502184601 7 302 6.4 19.3 0.00 0.00 0.00 49 1017.9
20260502183110 8 312 6.4 24.1 0.00 0.00 0.00 46 1017.9
20260502181555 9 262 6.4 19.3 0.00 0.00 0.00 50 1018.0
20260502163059 7 314 6.4 19.3 0.00 0.00 0.00 48 1018.8
20260502161621 6 246 3.2 12.9 0.00 0.00 0.00 52 1018.7
20260502151609 6 348 6.4 19.3 0.00 0.00 0.00 52 1018.7
20260502150106 5 360 4.8 17.7 0.00 0.00 0.00 54 1018.7
20260502130111 3 360 6.4 16.1 0.00 0.00 0.00 70 1018.8
20260502123100 2 360 3.2 14.5 0.00 0.00 0.00 73 1018.7
20260502121559 2 360 3.2 19.3 0.00 0.00 0.00 74 1018.6
20260502114557 1 360 4.8 14.5 0.00 0.00 0.00 75 1018.6
20260502113057 1 5 4.8 14.5 0.00 0.00 0.00 76 1018.4
20260502111606 1 5 4.8 12.9 0.00 0.00 0.00 77 1018.2
20260502110058 1 9 4.8 12.9 0.00 0.00 0.00 78 1018.2
20260502104557 1 337 1.6 8.0 0.00 0.00 0.00 78 1018.2
20260502103057 1 352 0.0 4.8 0.00 0.00 0.00 76 1018.2
20260502101556 1 0 0.0 4.8 0.00 0.00 0.00 75 1018.0
20260502090114 2 0 0.0 6.4 0.00 0.00 0.00 70 1017.7
20260502070107 3 0 1.6 6.4 0.00 0.00 0.00 66 1017.4
20260502064558 3 336 0.0 9.7 0.00 0.00 0.00 66 1017.4
20260502063057 3 343 1.6 8.0 0.00 0.00 0.00 67 1017.5
20260502061555 3 345 1.6 8.0 0.00 0.00 0.00 66 1017.5
20260502060058 4 0 0.0 4.8 0.00 0.00 0.00 65 1017.7
20260502054556 4 0 0.0 6.4 0.00 0.00 0.00 65 1017.8
20260502053119 4 44 1.6 8.0 0.00 0.00 0.00 65 1017.8
20260502051607 4 317 4.8 12.9 0.00 0.00 0.00 66 1017.8
20260502050057 4 352 1.6 12.9 0.00 0.00 0.00 66 1017.8
20260502044557 4 341 1.6 12.9 0.00 0.00 0.00 67 1017.6
20260502043112 4 328 1.6 4.8 0.00 0.00 0.00 70 1017.5
20260502041631 4 0 0.0 4.8 0.00 0.00 0.00 70 1017.4
20260502040059 4 24 0.0 8.0 0.00 0.00 0.00 69 1017.2
20260502034556 4 24 1.6 12.9 0.00 0.00 0.00 71 1017.1
20260502033106 4 352 1.6 16.1 0.00 0.00 0.00 70 1017.0
20260502031601 5 355 6.4 17.7 0.00 0.00 0.00 68 1016.9
20260502030100 5 5 3.2 9.7 0.00 0.00 0.00 69 1016.9
20260502024557 5 346 0.0 3.2 0.00 0.00 0.00 69 1017.0
20260502023059 5 5 1.6 6.4 0.00 0.00 0.00 69 1016.8
20260502021600 5 331 1.6 6.4 0.00 0.00 0.00 69 1016.8
20260502020110 5 348 3.2 14.5 0.00 0.00 0.00 67 1016.8
20260502014557 5 339 4.8 12.9 0.00 0.00 0.00 67 1016.7
20260502013101 6 321 4.8 14.5 0.00 0.00 0.00 66 1016.6
20260502011608 6 360 3.2 12.9 0.00 0.00 0.00 66 1016.5
20260502010104 6 333 1.6 12.9 0.00 0.00 0.00 66 1016.4
20260502004600 6 360 1.6 6.4 0.00 0.00 0.00 67 1016.2
20260502003056 6 327 0.0 9.7 0.00 0.00 0.00 66 1016.2
20260502001602 6 48 3.2 9.7 0.00 0.00 0.00 67 1016.1
20260502000056 6 337 0.0 14.5 0.00 0.00 0.00 66 1016.1
20260501234600 6 360 4.8 14.5 0.00 0.00 0.00 66 1015.9
20260501233106 6 344 4.8 14.5 0.00 0.00 0.00 65 1015.8
20260501231626 6 35 4.8 16.1 0.00 0.00 0.00 65 1015.8
20260501230058 6 360 4.8 16.1 0.00 0.00 0.00 65 1015.8
20260501224559 7 352 6.4 16.1 0.00 0.00 0.00 64 1015.8
20260501223119 7 288 4.8 14.5 0.00 0.00 0.00 63 1015.7
20260501221558 7 360 6.4 16.1 0.00 0.00 0.00 62 1015.7